This demonstration page uses our WeatherBlox Daily Observations layout. Learn more.

Left ArrowRight Arrow

34.02893, -84.19858

Hourly Observations for October 31, 2021

Temp ( °F °C ) Dew Point ( °F °C ) Humidity (%) Winds ( mph kmh ) Pressure ( in mb ) Visibility ( mi km ) Precip ( " mm )
12:53 am 00:53 Cloudy 53 11.7 51 10.6 93 93 W 9 15 29.80 1009 10 16 0.00 0.00
1:09 am 01:09 Cloudy 53 11.7 51 10.6 93 93 W 8 13 29.81 1010 10 16 0.00 0.00
1:40 am 01:40 Partly Cloudy 53 11.7 50 10 89 89 WNW 7 11 29.81 1010 10 16 0.00 0.00
1:53 am 01:53 Clear 52 11.1 50 10 93 93 W 9 15 29.81 1010 10 16 0.00 0.00
2:33 am 02:33 Mostly Cloudy 52 11.1 50 10 93 93 W 7 11 29.83 1010 10 16 0.00 0.00
2:53 am 02:53 Cloudy 52 11.1 50 10 93 93 W 9 15 29.82 1010 10 16 0.00 0.00
3:53 am 03:53 Partly Cloudy 52 11.1 50 10 93 93 WNW 6 9 29.83 1010 10 16 0.00 0.00
4:00 am 04:00 Mostly Cloudy 52 11.1 50 10 93 93 WNW 6 9 29.84 1010 10 16 0.00 0.00
4:08 am 04:08 Partly Cloudy 52 11.1 50 10 93 93 WNW 7 11 29.84 1010 10 16 0.00 0.00
4:53 am 04:53 Mostly Cloudy 52 11.1 50 10 93 93 W 7 11 29.85 1011 10 16 0.00 0.00
5:53 am 05:53 Cloudy 52 11.1 50 10 93 93 WNW 7 11 29.87 1012 10 16 0.00 0.00
6:53 am 06:53 Cloudy 53 11.7 50 10 89 89 WNW 8 13 29.89 1012 10 16 0.00 0.00
7:53 am 07:53 Mostly Cloudy 52 11.1 50 10 93 93 W 8 13 29.91 1013 10 16 0.00 0.00
8:53 am 08:53 Cloudy 53 11.7 50 10 89 89 WNW 8 13 29.94 1014 10 16 0.00 0.00
9:53 am 09:53 Cloudy 55 12.8 50 10 83 83 WNW 10 17 29.96 1015 10 16 0.00 0.00
10:22 am 10:22 Mostly Cloudy 56 13.3 49 9.4 77 77 NW 13 20 29.97 1015 10 16 0.00 0.00
10:53 am 10:53 Mostly Cloudy 58 14.4 49 9.4 72 72 NW 13 20 29.98 1015 10 16 0.00 0.00
11:53 am 11:53 Cloudy 58 14.4 47 8.3 67 67 NNW 15 24 30.00 1016 10 16 0.00 0.00
12:53 pm 12:53 Cloudy 58 14.4 48 8.9 70 70 NNW 13 20 30.01 1016 10 16 0.00 0.00
1:53 pm 13:53 Cloudy 58 14.4 48 8.9 70 70 NW 10 17 30.00 1016 10 16 0.00 0.00
2:53 pm 14:53 Mostly Cloudy 60 15.6 47 8.3 62 62 NW 13 20 30.00 1016 10 16 0.00 0.00
3:53 pm 15:53 Mostly Cloudy 60 15.6 48 8.9 65 65 NW 10 17 30.00 1016 10 16 0.00 0.00
4:53 pm 16:53 Mostly Cloudy 60 15.6 48 8.9 65 65 NNW 15 24 30.01 1016 10 16 0.00 0.00
4:54 pm 16:54 Mostly Sunny 60 15.6 48 8.9 65 65 NNW 13 20 30.01 1016 10 16 0.00 0.00
5:53 pm 17:53 Sunny 59 15 47 8.3 64 64 NW 13 20 30.02 1017 10 16 0.00 0.00
6:53 pm 18:53 Clear 55 12.8 47 8.3 74 74 NW 6 9 30.04 1017 10 16 0.00 0.00
7:53 pm 19:53 Clear 54 12.2 46 7.8 75 75 NW 8 13 30.06 1018 10 16 0.00 0.00
8:53 pm 20:53 Clear 53 11.7 46 7.8 77 77 NW 6 9 30.09 1019 10 16 0.00 0.00
9:53 pm 21:53 Clear 52 11.1 46 7.8 80 80 WNW 5 7 30.10 1019 10 16 0.00 0.00
10:53 pm 22:53 Clear 52 11.1 45 7.2 77 77 NNW 8 13 30.11 1020 10 16 0.00 0.00
11:53 pm 23:53 Clear 50 10 45 7.2 83 83 NNW 5 7 30.11 1020 10 16 0.00 0.00

Powered by AerisWeather